ARIANE 2 DEB, 33560

Orbit data source: Space-Track

ARIANE 2 DEB, 33560 is space debris in HEO originally from a launch on Fri, 27 Jan 1989 UTC launched from the French Guiana (FRGUI). Debris objects in space refer to the collection of defunct objects orbiting the Earth. Examples of debris include non-operational satellites, rocket bodies, and fragments generated from explosions, collisions, or faulty payload assembly.

Loading next visibility...
Identifier
33560, 1989-006BC
Orbit
HEO
Country
Flag of FRFR
Related business
Manufacturer
EADS/LV
Mission
Spacecraft
Bus & Motor
Unknown
Mass
Unknown
Launch date (UTC)
1989-01-27 (37 years ago)
Launch vehicle
Unknown
Launch site
French Guiana (FRGUI)
Object type
Payload
Rocket body
Debris
Shape & HBR
Unknown shape, 0.2 m
Radar Cross Section
Medium (>0.1 m² and <1 m²)

Expand to show TLE details & history
Last TLE update: 21 hours ago

TLE from 21 hours ago
0 ARIANE 2 DEB
1 33560U 89006BC  26067.61982699 -.00000004  00000-0  84041-2 0  9995
2 33560  10.8858  59.1096 7066533  66.4804   9.2399  2.25164878178592
Epoch: 2026-03-08T14:52Z
TLE epoch observation values (Epoch: 2026-03-08T14:52:33.051Z)
Latitude
8.47978°
Longitude
159.21295°
Altitude
2,900.573 km
Speed
8.349 km/s
True Right ascension
12h 34m 42s
True Declination
8° 26' 29"
Sunlit
Object was in full shadow at epoch
Visualization orbit readout
Latitude
Unknown
Longitude
Unknown
Altitude
Unknown
Speed
Unknown
Apparent Right ascension
Unknown
Apparent Declination
Unknown
Sunlit
N/A
Visualization observer readout
Local Sidereal Time
16:03:48
Azimuth
Unknown
Elevation
Unknown
Doppler factor
Unknown
Orbital elements
Apogee altitude
35,594.364 km
Perigee altitude
836.272 km
Semi-major axis
24,593.455 km
Eccentricity
0.70665
Inclination
10.8858°
RAAN
59.1096°
Arg. of periapsis
66.4804°
True anomaly
63.27238°
Mean anomaly
9.2399°
Eccentric anomaly
28.65608°
Mean motion
0.56275 °/min
Orbital period
639.72 mins
BSTAR
0.0084041
Loading maneuver chart data...
Computing Atmospheric mass density...
Loading historical data...
Loading historical data...
Loading historical data...
Loading historical data...
Loading historical data...
Loading historical data...
Loading historical data...

Documentation

Showing up to 5 results
|